When you browse on this site, cookies collect data to enhance your experience and personalize the content and advertising you see.
Visit our Privacy Policy to learn more. By continuing to use the site, you agree to this use of cookies and data.
  • In Czech Republic
  • List of Countries
  • For 7 days
  • Water Temperature
  • Satellite Maps
  • Weather Map
  • Weather Widgets
  • user-avatar
    Login

    Hourly Weather Annaba

    Today, 20 January, Sunday

    Time Temperature Precipitation Wind Pressure Humidity
    00:00 +7°C° 0.1 mm 4 mps 759 mmHg 86%
    01:00 +8°C° 0.1 mm 3 mps 759 mmHg 85%
    02:00 +8°C° 0 mm 3 mps 759 mmHg 84%
    03:00 +8°C° 0 mm 3 mps 759 mmHg 84%
    04:00 +7°C° 0 mm 3 mps 758 mmHg 83%
    05:00 +7°C° 0 mm 3 mps 758 mmHg 82%
    06:00 +7°C° 0 mm 3 mps 758 mmHg 82%
    07:00 +7°C° 0 mm 3 mps 758 mmHg 81%
    08:00 +8°C° 0 mm 2 mps 758 mmHg 77%
    09:00 +10°C° 0 mm 2 mps 758 mmHg 74%
    10:00 +12°C° 0 mm 2 mps 758 mmHg 70%
    11:00 +14°C° 0 mm 2 mps 757 mmHg 63%
    12:00 +15°C° 0 mm 2 mps 757 mmHg 57%
    13:00 +17°C° 0 mm 2 mps 756 mmHg 50%
    14:00 +17°C° 0 mm 2 mps 755 mmHg 52%
    15:00 +17°C° 0 mm 3 mps 755 mmHg 53%
    16:00 +17°C° 0 mm 3 mps 754 mmHg 54%
    17:00 +16°C° 0 mm 3 mps 754 mmHg 58%
    18:00 +14°C° 0 mm 2 mps 754 mmHg 62%
    19:00 +13°C° 0 mm 2 mps 754 mmHg 66%
    20:00 +12°C° 0.2 mm 2 mps 754 mmHg 68%
    21:00 +12°C° 0.2 mm 2 mps 754 mmHg 71%
    22:00 +12°C° 0.2 mm 2 mps 754 mmHg 73%
    23:00 +12°C° 0 mm 2 mps 754 mmHg 76%

    Tomorrow, 21 January, Monday

    Time Temperature Precipitation Wind Pressure Humidity
    00:00 +10°C° 0 mm 2 mps 754 mmHg 78%
    01:00 +10°C° 0 mm 2 mps 754 mmHg 81%
    02:00 +10°C° 0.1 mm 2 mps 754 mmHg 81%
    03:00 +10°C° 0.1 mm 2 mps 753 mmHg 81%
    04:00 +10°C° 0.1 mm 2 mps 753 mmHg 81%
    05:00 +10°C° 0.1 mm 2 mps 753 mmHg 81%
    06:00 +9°C° 0.1 mm 2 mps 753 mmHg 81%
    07:00 +9°C° 0.1 mm 3 mps 753 mmHg 81%
    08:00 +12°C° 0 mm 2 mps 753 mmHg 77%
    09:00 +13°C° 0 mm 2 mps 753 mmHg 73%
    10:00 +14°C° 0 mm 2 mps 753 mmHg 69%
    11:00 +14°C° 0 mm 3 mps 753 mmHg 64%
    12:00 +17°C° 0 mm 3 mps 753 mmHg 60%
    13:00 +18°C° 0 mm 3 mps 753 mmHg 55%
    14:00 +17°C° 0 mm 3 mps 753 mmHg 58%
    15:00 +17°C° 0 mm 3 mps 753 mmHg 61%
    16:00 +17°C° 0 mm 4 mps 753 mmHg 64%
    17:00 +14°C° 1.8 mm 6 mps 754 mmHg 72%
    18:00 +12°C° 1.8 mm 8 mps 755 mmHg 81%
    19:00 +9°C° 1.8 mm 11 mps 756 mmHg 90%
    20:00 +9°C° 1 mm 10 mps 756 mmHg 88%
    21:00 +10°C° 1 mm 9 mps 757 mmHg 86%
    22:00 +9°C° 1 mm 7 mps 757 mmHg 85%
    23:00 +9°C° 0.6 mm 7 mps 758 mmHg 85%

    Day after tomorrow, 22 January, Tuesday

    Time Temperature Precipitation Wind Pressure Humidity
    00:00 +9°C° 0.6 mm 7 mps 758 mmHg 85%
    01:00 +9°C° 0.6 mm 6 mps 758 mmHg 85%
    02:00 +8°C° 0.6 mm 6 mps 758 mmHg 85%
    03:00 +8°C° 0.6 mm 6 mps 758 mmHg 85%
    04:00 +8°C° 0.6 mm 6 mps 758 mmHg 85%
    05:00 +8°C° 0.4 mm 6 mps 758 mmHg 85%
    06:00 +7°C° 0.4 mm 6 mps 759 mmHg 86%
    07:00 +7°C° 0.4 mm 5 mps 759 mmHg 86%
    08:00 +8°C° 0.5 mm 6 mps 759 mmHg 83%
    09:00 +9°C° 0.5 mm 6 mps 759 mmHg 81%
    10:00 +9°C° 0.5 mm 6 mps 759 mmHg 79%
    11:00 +10°C° 0.6 mm 6 mps 759 mmHg 76%
    12:00 +10°C° 0.6 mm 7 mps 759 mmHg 73%
    13:00 +10°C° 0.6 mm 7 mps 759 mmHg 70%
    14:00 +10°C° 0.4 mm 6 mps 758 mmHg 70%
    15:00 +10°C° 0.4 mm 6 mps 757 mmHg 71%
    16:00 +10°C° 0.4 mm 5 mps 757 mmHg 71%
    17:00 +9°C° 0.1 mm 5 mps 757 mmHg 74%
    18:00 +8°C° 0.1 mm 4 mps 756 mmHg 77%
    19:00 +7°C° 0.1 mm 4 mps 756 mmHg 81%
    20:00 +7°C° 0.1 mm 4 mps 756 mmHg 80%
    21:00 +6°C° 0.1 mm 4 mps 756 mmHg 80%
    22:00 +6°C° 0.1 mm 4 mps 755 mmHg 80%
    23:00 +6°C° 0.1 mm 4 mps 755 mmHg 79%

    23 January, Wednesday

    Time Temperature Precipitation Wind Pressure Humidity
    00:00 +6°C° 0.1 mm 4 mps 754 mmHg 78%
    01:00 +6°C° 0.1 mm 4 mps 753 mmHg 76%
    02:00 +6°C° 0 mm 4 mps 752 mmHg 74%
    03:00 +6°C° 0 mm 4 mps 751 mmHg 71%
    04:00 +7°C° 0 mm 5 mps 750 mmHg 69%
    05:00 +7°C° 0.4 mm 5 mps 749 mmHg 68%
    06:00 +7°C° 0.4 mm 6 mps 748 mmHg 68%
    07:00 +5°C° 0.4 mm 6 mps 748 mmHg 68%
    08:00 +6°C° 0.6 mm 8 mps 748 mmHg 68%
    09:00 +7°C° 0.6 mm 9 mps 747 mmHg 69%
    10:00 +8°C° 0.6 mm 11 mps 747 mmHg 70%
    11:00 +8°C° 1 mm 10 mps 747 mmHg 71%
    12:00 +8°C° 1 mm 9 mps 747 mmHg 72%
    13:00 +9°C° 1 mm 8 mps 746 mmHg 73%
    14:00 +7°C° 0.8 mm 8 mps 746 mmHg 75%
    15:00 +7°C° 0.8 mm 9 mps 746 mmHg 77%
    16:00 +7°C° 0.8 mm 9 mps 745 mmHg 79%
    17:00 +6°C° 4.1 mm 7 mps 745 mmHg 84%
    18:00 +5°C° 4.1 mm 6 mps 745 mmHg 90%
    19:00 +5°C° 4.1 mm 5 mps 744 mmHg 95%
    20:00 +5°C° 2.3 mm 5 mps 745 mmHg 91%
    21:00 +5°C° 2.3 mm 6 mps 745 mmHg 86%
    22:00 +5°C° 2.3 mm 6 mps 746 mmHg 82%
    23:00 +4°C° 0.6 mm 7 mps 746 mmHg 80%

    24 January, Thursday

    Time Temperature Precipitation Wind Pressure Humidity
    00:00 +4°C° 0.6 mm 8 mps 746 mmHg 77%
    01:00 +3°C° 0.6 mm 9 mps 746 mmHg 75%
    02:00 +3°C° 0.9 mm 10 mps 745 mmHg 74%
    03:00 +3°C° 0.9 mm 11 mps 745 mmHg 74%
    04:00 +3°C° 0.9 mm 11 mps 745 mmHg 74%
    05:00 +3°C° 0.9 mm 11 mps 745 mmHg 74%
    06:00 +2°C° 0.9 mm 11 mps 745 mmHg 75%
    07:00 +2°C° 0.9 mm 12 mps 745 mmHg 75%
    08:00 +3°C° 1 mm 12 mps 745 mmHg 75%
    09:00 +3°C° 1 mm 12 mps 745 mmHg 76%
    10:00 +3°C° 1 mm 12 mps 745 mmHg 76%
    11:00 +4°C° 1.2 mm 12 mps 745 mmHg 77%
    12:00 +4°C° 1.2 mm 12 mps 745 mmHg 78%
    13:00 +4°C° 1.2 mm 12 mps 744 mmHg 79%
    14:00 +4°C° 1.2 mm 12 mps 744 mmHg 80%
    15:00 +4°C° 1.2 mm 12 mps 745 mmHg 80%
    16:00 +4°C° 1.2 mm 12 mps 745 mmHg 81%
    17:00 +4°C° 1.4 mm 11 mps 745 mmHg 80%
    18:00 +5°C° 1.4 mm 9 mps 746 mmHg 79%
    19:00 +5°C° 1.4 mm 8 mps 747 mmHg 78%
    20:00 +5°C° 1.5 mm 8 mps 747 mmHg 82%
    21:00 +5°C° 1.5 mm 8 mps 748 mmHg 86%
    22:00 +5°C° 1.5 mm 8 mps 748 mmHg 89%
    23:00 +6°C° 2.3 mm 9 mps 748 mmHg 87%

    25 January, Friday

    Time Temperature Precipitation Wind Pressure Humidity
    00:00 +6°C° 2.3 mm 10 mps 749 mmHg 85%
    01:00 +5°C° 2.3 mm 12 mps 749 mmHg 82%
    02:00 +5°C° 1.8 mm 12 mps 749 mmHg 84%
    03:00 +5°C° 1.8 mm 12 mps 750 mmHg 85%
    04:00 +5°C° 1.8 mm 12 mps 750 mmHg 86%
    05:00 +5°C° 1.2 mm 12 mps 751 mmHg 86%
    06:00 +6°C° 1.2 mm 11 mps 751 mmHg 86%
    07:00 +6°C° 1.2 mm 10 mps 752 mmHg 86%
    08:00 +7°C° 1.5 mm 10 mps 752 mmHg 85%
    09:00 +7°C° 1.5 mm 10 mps 753 mmHg 85%
    10:00 +8°C° 1.5 mm 9 mps 754 mmHg 84%
    11:00 +8°C° 0.9 mm 9 mps 754 mmHg 84%
    12:00 +8°C° 0.9 mm 9 mps 755 mmHg 83%
    13:00 +10°C° 0.9 mm 9 mps 755 mmHg 82%
    14:00 +10°C° 1.1 mm 9 mps 756 mmHg 82%
    15:00 +10°C° 1.1 mm 9 mps 756 mmHg 82%
    16:00 +10°C° 1.1 mm 9 mps 756 mmHg 82%
    17:00 +8°C° 0.8 mm 9 mps 757 mmHg 83%
    18:00 +8°C° 0.8 mm 9 mps 758 mmHg 83%
    19:00 +8°C° 0.8 mm 9 mps 759 mmHg 83%
    20:00 +7°C° 0.1 mm 9 mps 760 mmHg 82%
    21:00 +7°C° 0.1 mm 9 mps 760 mmHg 81%
    22:00 +7°C° 0.1 mm 9 mps 761 mmHg 80%
    23:00 +7°C° 0.1 mm 8 mps 761 mmHg 79%
    Show more